Precipitable_Water
0.64 0.42 0.32 0.38 0.45 0.47 0.41 0.39 0.35 0.39 0.45 0.40 0.39 0.40 0.44 0.48 0.49 0.46 0.45 0.44 0.46 0.46 0.46 0.47 0.48 0.50 0.55 0.61 0.66 0.71 0.71 0.76 0.99 1.09 1.09 1.08 1.08 1.20 1.24 1.25 1.22 1.21 1.19 1.23
0.51 0.35 0.44 0.53 0.53 0.50 0.44 0.37 0.34 0.41 0.44 0.38 0.39 0.36 0.42 0.47 0.45 0.45 0.42 0.40 0.40 0.42 0.43 0.45 0.43 0.43 0.42 0.45 0.52 0.60 0.67 0.73 0.76 0.91 1.08 1.07 1.04 1.08 1.15 1.19 1.20 1.22 1.19 1.17
0.31 0.35 0.47 0.48 0.52 0.49 0.48 0.39 0.37 0.36 0.38 0.38 0.36 0.34 0.36 0.40 0.41 0.43 0.42 0.38 0.39 0.39 0.38 0.38 0.38 0.39 0.39 0.40 0.42 0.47 0.55 0.60 0.65 0.71 0.84 1.05 1.06 1.09 1.02 1.01 1.05 1.12 1.22 1.26
0.38 0.47 0.42 0.48 0.50 0.55 0.41 0.46 0.42 0.39 0.31 0.20 0.32 0.21 0.31 0.33 0.31 0.32 0.36 0.39 0.39 0.39 0.40 0.40 0.41 0.40 0.41 0.42 0.45 0.45 0.47 0.50 0.56 0.62 0.64 0.73 0.83 0.81 0.91 0.96 1.03 1.09 1.18 1.18
0.37 0.38 0.44 0.43 0.51 0.57 0.49 0.53 0.46 0.39 0.32 0.32 0.30 0.24 0.34 0.34 0.27 0.30 0.36 0.41 0.44 0.46 0.45 0.45 0.45 0.46 0.48 0.49 0.47 0.46 0.45 0.46 0.48 0.50 0.52 0.57 0.66 0.83 0.91 0.91 0.92 0.98 1.11 1.15
0.44 0.54 0.53 0.54 0.58 0.60 0.57 0.50 0.48 0.43 0.38 0.25 0.30 0.25 0.27 0.29 0.29 0.35 0.40 0.42 0.43 0.45 0.47 0.47 0.50 0.52 0.52 0.54 0.53 0.51 0.48 0.46 0.48 0.51 0.54 0.56 0.63 0.76 0.84 0.86 0.87 0.93 1.01 1.08
0.42 0.43 0.55 0.59 0.50 0.57 0.54 0.45 0.32 0.28 0.26 0.22 0.31 0.27 0.28 0.32 0.34 0.36 0.39 0.44 0.46 0.49 0.51 0.51 0.50 0.50 0.52 0.53 0.54 0.53 0.51 0.47 0.49 0.49 0.49 0.51 0.58 0.69 0.77 0.83 0.86 0.88 0.92 0.97
0.35 0.32 0.48 0.57 0.51 0.46 0.49 0.46 0.35 0.23 0.21 0.23 0.30 0.22 0.27 0.34 0.36 0.42 0.44 0.44 0.48 0.50 0.53 0.53 0.55 0.55 0.54 0.55 0.56 0.55 0.53 0.52 0.52 0.50 0.49 0.50 0.52 0.53 0.59 0.72 0.83 0.89 0.91 0.98
0.36 0.35 0.54 0.56 0.58 0.56 0.47 0.41 0.45 0.31 0.31 0.24 0.24 0.26 0.30 0.33 0.33 0.38 0.39 0.41 0.45 0.48 0.51 0.52 0.54 0.55 0.55 0.56 0.57 0.55 0.54 0.55 0.56 0.56 0.57 0.57 0.57 0.56 0.56 0.61 0.70 0.77 0.84 0.90
0.42 0.34 0.49 0.54 0.59 0.54 0.50 0.52 0.34 0.34 0.22 0.20 0.22 0.22 0.22 0.26 0.30 0.34 0.37 0.40 0.45 0.50 0.53 0.54 0.56 0.58 0.61 0.62 0.62 0.61 0.61 0.61 0.63 0.64 0.63 0.62 0.63 0.64 0.65 0.67 0.67 0.70 0.73 0.77
0.44 0.40 0.40 0.48 0.45 0.42 0.42 0.40 0.40 0.37 0.30 0.23 0.18 0.19 0.31 0.29 0.33 0.36 0.39 0.42 0.46 0.52 0.55 0.57 0.60 0.63 0.65 0.64 0.64 0.63 0.63 0.63 0.64 0.65 0.68 0.68 0.68 0.67 0.66 0.65 0.66 0.67 0.68 0.69
0.45 0.39 0.32 0.36 0.46 0.49 0.45 0.41 0.40 0.31 0.27 0.26 0.26 0.22 0.32 0.36 0.38 0.38 0.40 0.43 0.49 0.55 0.56 0.60 0.63 0.63 0.62 0.62 0.63 0.62 0.61 0.61 0.63 0.65 0.67 0.66 0.67 0.68 0.67 0.65 0.62 0.64 0.63 0.66
0.41 0.34 0.27 0.29 0.37 0.44 0.40 0.41 0.39 0.36 0.33 0.24 0.21 0.21 0.35 0.39 0.36 0.38 0.38 0.44 0.50 0.55 0.56 0.58 0.59 0.60 0.60 0.60 0.60 0.59 0.57 0.56 0.58 0.61 0.61 0.59 0.57 0.54 0.53 0.53 0.55 0.57 0.59 0.60
0.43 0.34 0.29 0.25 0.29 0.35 0.32 0.36 0.38 0.35 0.27 0.26 0.24 0.24 0.29 0.34 0.34 0.36 0.42 0.45 0.51 0.55 0.55 0.57 0.58 0.60 0.60 0.61 0.58 0.54 0.53 0.55 0.55 0.56 0.55 0.54 0.52 0.53 0.54 0.55 0.55 0.56 0.57 0.58
0.38 0.26 0.29 0.30 0.32 0.33 0.32 0.32 0.34 0.31 0.32 0.26 0.27 0.26 0.28 0.32 0.35 0.39 0.46 0.51 0.55 0.56 0.57 0.58 0.59 0.61 0.61 0.61 0.57 0.55 0.56 0.56 0.55 0.53 0.52 0.53 0.54 0.55 0.56 0.56 0.55 0.56 0.59 0.60
0.39 0.29 0.30 0.26 0.30 0.31 0.29 0.33 0.34 0.33 0.32 0.30 0.29 0.27 0.35 0.37 0.43 0.44 0.49 0.55 0.56 0.57 0.59 0.59 0.61 0.62 0.61 0.61 0.58 0.58 0.58 0.56 0.55 0.54 0.55 0.55 0.55 0.56 0.56 0.56 0.58 0.59 0.61 0.66
0.36 0.32 0.28 0.23 0.29 0.30 0.25 0.29 0.32 0.33 0.34 0.31 0.25 0.31 0.40 0.38 0.42 0.46 0.53 0.57 0.59 0.60 0.60 0.59 0.62 0.64 0.63 0.63 0.61 0.58 0.59 0.59 0.57 0.56 0.57 0.57 0.58 0.56 0.56 0.56 0.57 0.59 0.62 0.67
0.34 0.32 0.30 0.24 0.27 0.19 0.30 0.38 0.38 0.34 0.35 0.38 0.37 0.38 0.41 0.44 0.50 0.55 0.60 0.60 0.61 0.62 0.61 0.61 0.63 0.64 0.64 0.66 0.65 0.63 0.61 0.61 0.60 0.59 0.59 0.58 0.57 0.56 0.56 0.57 0.59 0.61 0.64 0.64
0.39 0.33 0.27 0.21 0.23 0.27 0.32 0.38 0.36 0.34 0.35 0.39 0.37 0.41 0.49 0.53 0.57 0.57 0.64 0.66 0.65 0.64 0.63 0.63 0.65 0.66 0.66 0.63 0.63 0.63 0.63 0.64 0.63 0.61 0.59 0.59 0.59 0.56 0.57 0.57 0.60 0.61 0.63 0.64
0.37 0.37 0.28 0.27 0.21 0.18 0.34 0.46 0.51 0.50 0.33 0.48 0.47 0.49 0.52 0.57 0.45 0.58 0.67 0.67 0.66 0.66 0.65 0.64 0.65 0.65 0.64 0.63 0.64 0.63 0.63 0.64 0.62 0.62 0.62 0.64 0.60 0.60 0.60 0.62 0.63 0.64 0.65 0.65
0.31 0.31 0.26 0.27 0.24 0.26 0.35 0.47 0.50 0.32 0.38 0.54 0.54 0.56 0.57 0.54 0.59 0.66 0.67 0.67 0.68 0.66 0.66 0.66 0.65 0.63 0.64 0.65 0.64 0.64 0.64 0.63 0.67 0.65 0.64 0.62 0.63 0.64 0.64 0.65 0.64 0.62 0.59 0.53
0.28 0.26 0.25 0.26 0.22 0.19 0.40 0.44 0.36 0.51 0.57 0.59 0.59 0.62 0.62 0.65 0.65 0.67 0.68 0.68 0.68 0.65 0.65 0.66 0.65 0.64 0.65 0.65 0.65 0.62 0.63 0.67 0.69 0.68 0.67 0.66 0.67 0.66 0.63 0.51 0.42 0.36 0.32 0.27
0.28 0.32 0.29 0.30 0.30 0.41 0.43 0.48 0.52 0.56 0.58 0.62 0.64 0.67 0.67 0.67 0.66 0.68 0.68 0.70 0.70 0.67 0.66 0.66 0.64 0.64 0.66 0.66 0.65 0.62 0.66 0.69 0.69 0.68 0.66 0.65 0.62 0.42 0.33 0.32 0.30 0.27 0.24 0.22
0.40 0.45 0.35 0.36 0.39 0.41 0.46 0.50 0.54 0.55 0.59 0.66 0.68 0.68 0.67 0.65 0.69 0.68 0.69 0.71 0.69 0.67 0.66 0.67 0.65 0.64 0.62 0.65 0.67 0.68 0.69 0.70 0.67 0.63 0.60 0.43 0.31 0.31 0.31 0.30 0.27 0.24 0.22 0.20
0.42 0.44 0.39 0.38 0.42 0.47 0.49 0.51 0.57 0.58 0.63 0.67 0.71 0.72 0.67 0.67 0.68 0.69 0.70 0.73 0.70 0.68 0.67 0.67 0.65 0.64 0.64 0.67 0.67 0.69 0.66 0.63 0.59 0.50 0.34 0.31 0.31 0.31 0.29 0.26 0.24 0.22 0.23 0.22
0.38 0.35 0.34 0.33 0.42 0.42 0.48 0.55 0.58 0.57 0.58 0.61 0.63 0.71 0.70 0.69 0.67 0.71 0.73 0.75 0.72 0.69 0.67 0.66 0.65 0.64 0.65 0.66 0.64 0.64 0.62 0.58 0.43 0.32 0.32 0.32 0.31 0.32 0.30 0.28 0.26 0.28 0.27 0.24
Wind_Speed
36 37 36 38 37 28 29 31 33 29 27 29 36 33 34 30 29 29 30 29 30 30 30 30 30 31 31 32 32 32 32 31 31 31 31 32 32 33 32 32 32 31 32 33
31 33 29 30 32 29 24 31 33 25 27 26 28 32 31 30 32 31 30 29 30 30 30 29 30 31 32 33 33 34 34 34 33 33 33 33 34 35 35 35 35 35 34 35
33 26 31 27 29 27 28 27 30 26 27 25 23 27 29 29 29 29 28 28 28 27 27 28 28 29 31 32 33 34 34 35 35 35 35 34 35 35 35 36 37 38 38 37
28 22 31 28 22 24 23 26 26 25 26 22 27 17 26 27 26 26 25 25 24 23 24 24 24 25 26 28 30 32 34 35 36 36 37 37 36 36 36 37 37 38 39 39
19 26 25 28 20 23 17 18 24 24 26 21 24 20 18 22 23 23 22 21 21 22 21 21 21 21 21 22 24 27 30 32 34 34 35 36 37 35 35 36 37 37 37 39
17 18 18 17 17 21 18 17 17 18 20 20 22 23 21 22 23 22 21 19 19 18 18 18 19 19 19 19 20 21 22 25 28 31 32 33 34 34 34 34 34 34 35 37
16 15 14 14 15 20 18 19 16 17 18 18 20 20 14 18 20 21 20 19 18 17 17 17 17 17 18 18 18 19 19 20 21 23 26 30 32 33 33 33 33 34 34 35
12 13 9 14 14 17 21 17 12 14 20 20 18 21 18 20 21 19 19 18 18 18 17 17 17 18 18 18 19 19 19 19 20 21 21 23 25 28 31 32 33 33 34 35
11 9 7 13 13 14 17 18 12 10 11 15 19 17 17 21 21 20 19 19 18 17 17 17 17 17 18 19 19 19 20 20 21 22 22 23 23 25 26 28 30 32 34 35
9 8 9 9 9 9 15 16 13 12 12 13 16 17 17 22 23 20 19 19 18 17 16 16 16 16 17 17 18 19 20 21 22 23 23 24 25 25 26 27 28 30 32 34
9 6 9 9 10 11 12 14 12 10 10 10 10 12 15 21 21 19 17 17 16 15 15 15 15 15 16 17 18 19 20 21 22 22 22 23 23 24 25 26 28 30 33 35
5 6 8 7 8 9 10 12 14 11 10 9 8 6 13 18 17 16 15 15 15 14 14 14 14 15 16 17 18 18 19 19 20 20 20 19 20 21 22 24 26 29 31 33
7 6 7 8 9 10 12 15 13 11 9 11 8 7 13 16 16 14 14 15 15 15 15 15 15 15 16 16 17 16 16 16 17 17 18 18 17 17 18 20 22 25 26 26
5 5 6 8 5 8 11 14 15 13 12 10 11 9 15 16 16 13 12 13 15 16 16 16 16 15 15 15 14 14 14 15 15 15 14 14 14 15 17 18 20 21 21 20
6 6 6 6 7 8 11 13 17 15 15 12 8 10 14 16 15 13 13 13 14 15 15 15 14 14 14 13 13 13 13 13 13 12 12 12 12 13 14 15 15 16 15 16
6 6 6 7 7 9 11 13 15 18 20 19 15 14 13 14 12 13 13 13 14 14 14 14 14 14 13 13 13 12 12 11 11 11 10 10 11 12 12 12 11 11 12 14
7 7 7 5 7 8 11 15 16 15 16 19 17 17 11 12 12 13 13 14 14 14 14 14 14 13 13 13 13 12 11 11 10 9 10 10 10 9 8 9 9 9 9 11
8 8 7 5 6 7 5 7 10 15 13 16 15 14 13 12 13 13 13 14 13 13 13 14 14 13 13 12 12 11 10 9 10 10 9 9 8 7 6 6 7 7 7 8
8 9 7 7 7 5 6 7 8 10 9 16 15 14 12 10 10 12 11 11 11 12 12 13 13 12 12 10 10 10 10 10 9 9 7 6 5 4 4 5 5 5 5 5
7 8 8 6 6 6 4 6 7 7 7 7 10 10 9 9 10 8 9 9 10 10 10 10 11 11 11 10 9 10 9 8 7 7 6 5 4 2 2 1 3 4 5 5
8 8 10 9 7 7 6 7 6 7 5 8 8 9 9 10 9 9 9 9 9 8 8 8 9 10 9 9 8 9 8 7 6 5 4 3 3 2 1 1 2 3 4 5
10 8 8 9 8 8 7 7 8 6 6 6 7 8 8 8 9 9 9 9 8 7 7 9 8 9 9 8 8 8 7 7 6 5 5 4 3 2 1 1 1 2 4 5
9 9 7 10 8 6 9 7 7 8 8 7 7 7 7 8 9 9 10 10 9 8 6 6 7 8 8 8 8 8 7 8 7 7 6 4 3 2 2 1 2 3 5 6
11 11 11 9 10 12 10 9 9 10 10 9 9 8 8 8 8 9 10 10 9 9 8 8 8 8 8 8 8 8 8 8 8 7 6 5 4 3 3 3 4 5 7 7
10 11 13 14 14 12 14 13 11 10 10 12 12 11 10 9 8 8 9 11 10 9 9 9 9 9 10 10 9 9 9 9 8 7 6 5 4 4 4 4 5 6 8 9
13 14 13 11 10 12 10 11 12 13 12 13 14 14 12 11 10 9 9 10 11 10 9 10 10 10 10 11 11 11 11 10 9 8 6 6 5 5 5 5 6 7 8 10
Wind_Direction
197 198 202 204 207 214 216 216 221 214 214 219 223 225 228 229 227 228 233 235 235 235 237 237 238 239 239 240 241 243 245 246 248 250 252 254 256 257 260 262 262 262 263 261
185 196 196 202 208 213 222 219 214 214 215 221 222 226 229 227 230 233 235 238 239 238 237 239 240 241 241 242 243 245 247 248 250 253 255 256 259 260 261 262 262 263 263 263
188 194 194 197 208 208 221 209 210 212 211 220 227 229 227 227 230 232 234 238 239 239 239 240 242 243 243 244 245 247 249 250 252 254 256 257 259 261 262 263 263 263 263 264
186 189 196 200 203 201 207 209 211 206 207 218 215 229 217 217 225 227 227 229 231 233 234 237 241 243 244 246 248 250 252 253 254 255 256 258 259 261 263 264 264 264 264 263
181 187 190 201 202 202 204 206 202 205 212 210 213 226 209 215 217 216 218 222 226 231 234 236 238 241 244 247 250 253 253 254 255 255 256 258 259 261 263 265 265 265 265 264
171 177 192 200 205 205 192 185 193 205 211 220 212 220 216 215 215 212 216 218 222 226 229 233 237 241 245 249 252 256 256 258 257 256 257 258 259 261 263 265 266 266 266 266
167 180 195 199 199 195 194 190 195 203 211 218 208 217 233 211 208 211 213 216 221 225 228 233 237 242 246 251 256 258 261 262 263 263 261 260 260 261 263 266 267 268 269 269
165 178 196 191 191 199 189 199 203 202 207 207 210 221 222 212 215 212 216 220 223 228 233 238 243 247 250 254 258 261 264 265 267 267 268 267 266 265 266 267 269 270 271 271
152 155 172 182 188 183 190 194 208 215 209 209 210 216 220 217 213 215 218 222 225 230 236 241 246 250 254 257 260 263 266 267 269 270 270 270 271 271 271 272 272 273 273 273
139 135 153 159 170 185 186 187 200 209 201 213 214 218 221 209 209 214 218 221 225 231 238 245 250 253 256 259 262 265 267 270 272 272 272 272 273 274 275 276 276 277 278 278
159 147 162 168 178 184 188 198 206 216 222 221 202 216 211 203 204 207 214 220 224 230 238 247 252 254 258 262 265 268 271 272 273 274 275 275 275 276 277 279 281 282 282 282
173 172 181 191 196 208 208 204 205 211 204 211 223 208 199 193 191 199 211 219 224 232 241 247 253 259 263 266 268 271 273 274 275 274 274 277 279 281 283 286 288 289 290 289
189 191 191 204 213 209 212 211 213 211 219 215 222 195 194 187 198 214 223 228 231 237 245 250 257 263 266 267 269 270 273 275 277 277 276 277 281 285 290 294 296 298 298 298
214 209 225 218 216 202 214 215 213 212 216 213 220 195 205 205 213 225 230 231 236 242 249 254 259 262 265 265 265 269 273 277 278 277 276 278 283 288 292 298 302 304 304 304
221 210 211 220 222 225 224 220 215 217 221 223 220 225 212 215 223 235 236 237 240 247 251 254 256 259 264 261 264 269 275 278 277 274 274 279 284 291 297 304 309 311 309 310
214 207 209 228 229 231 233 227 222 222 225 231 234 235 234 231 229 235 240 241 246 248 250 252 255 259 262 261 261 267 272 276 276 273 271 278 284 293 300 306 309 321 320 321
216 203 218 224 226 239 237 228 218 220 224 225 227 230 215 224 234 241 243 247 249 250 252 252 254 257 258 261 257 261 266 272 268 268 273 277 283 292 301 310 318 322 331 335
216 214 219 230 224 223 205 212 216 217 222 219 224 226 230 239 244 246 248 247 248 251 253 251 254 254 252 255 250 255 261 264 258 266 273 272 276 287 299 309 324 328 335 342
220 212 213 223 224 246 206 199 199 198 215 218 220 228 233 238 243 246 244 249 249 253 254 254 252 246 247 246 248 247 255 258 258 262 263 263 263 279 297 314 329 335 342 355
205 213 218 208 220 219 198 196 198 209 204 193 207 222 233 238 247 246 240 245 252 251 254 248 242 237 234 242 245 243 250 252 252 249 245 247 253 267 292 356 35 35 30 28
205 211 218 220 229 238 201 198 208 218 206 202 231 237 243 246 251 245 244 249 245 251 245 237 232 227 227 239 238 236 235 232 228 217 213 203 186 172 137 92 24 19 12 14
213 215 219 218 229 235 207 206 223 215 219 236 242 243 251 250 247 243 239 239 237 241 239 233 228 223 227 229 225 216 216 209 205 197 188 181 177 191 200 297 343 356 354 350
226 225 230 225 232 233 215 225 235 241 237 241 243 246 255 251 246 239 236 230 231 232 235 221 219 217 220 221 211 206 202 197 192 184 183 188 197 215 248 278 306 324 329 332
234 230 235 243 235 234 229 244 251 245 238 236 242 249 254 258 251 241 234 230 232 233 231 227 222 218 213 206 201 198 192 186 186 186 193 201 214 236 256 282 300 312 321 324
241 222 236 244 252 246 243 247 244 246 247 244 247 250 256 256 254 241 234 225 229 231 230 229 225 221 213 208 202 196 193 193 196 198 205 218 235 246 261 287 303 311 318 319
235 238 236 246 251 249 248 239 248 251 254 254 249 247 251 251 250 240 237 230 229 230 230 226 222 215 209 205 203 202 204 206 206 209 221 234 244 254 269 284 300 314 316 318